• In Hungary
  • List of Countries
  • For 7 days
  • Water Temperature
  • Satellite Maps
  • Weather Map
  • News
  • Weather Widgets
  • user-avatar
    Login

    Hourly Weather Kotonu

    Today, 18 June, Monday

    Time Temperature Precipitation Wind Pressure Humidity
    00:00 +29°C° 0.2 mm 5 mps 761 mmHg 82%
    01:00 +28°C° 1.6 mm 5 mps 760 mmHg 84%
    02:00 +28°C° 1.6 mm 5 mps 760 mmHg 86%
    03:00 +27°C° 1.6 mm 5 mps 760 mmHg 87%
    04:00 +27°C° 0.7 mm 5 mps 760 mmHg 88%
    05:00 +27°C° 0.7 mm 5 mps 760 mmHg 88%
    06:00 +27°C° 0.7 mm 5 mps 761 mmHg 88%
    07:00 +28°C° 0.7 mm 5 mps 761 mmHg 83%
    08:00 +29°C° 0.7 mm 5 mps 761 mmHg 78%
    09:00 +30°C° 0.7 mm 5 mps 761 mmHg 73%
    10:00 +32°C° 0.1 mm 5 mps 761 mmHg 69%
    11:00 +33°C° 0.1 mm 5 mps 761 mmHg 64%
    12:00 +34°C° 0.1 mm 5 mps 760 mmHg 60%
    13:00 +34°C° 0 mm 5 mps 759 mmHg 60%
    14:00 +34°C° 0 mm 6 mps 759 mmHg 61%
    15:00 +34°C° 0 mm 6 mps 758 mmHg 62%
    16:00 +33°C° 0 mm 6 mps 758 mmHg 66%
    17:00 +30°C° 0 mm 7 mps 758 mmHg 71%
    18:00 +29°C° 0 mm 7 mps 759 mmHg 76%
    19:00 +29°C° 0.1 mm 7 mps 759 mmHg 77%
    20:00 +29°C° 0.1 mm 7 mps 760 mmHg 78%
    21:00 +28°C° 0.1 mm 7 mps 760 mmHg 80%
    22:00 +28°C° 0.2 mm 7 mps 760 mmHg 80%
    23:00 +28°C° 0.2 mm 7 mps 760 mmHg 80%

    Tomorrow, 19 June, Tuesday

    Time Temperature Precipitation Wind Pressure Humidity
    00:00 +28°C° 0.2 mm 7 mps 760 mmHg 80%
    01:00 +28°C° 0.2 mm 7 mps 760 mmHg 80%
    02:00 +28°C° 0.2 mm 7 mps 760 mmHg 80%
    03:00 +28°C° 0.2 mm 7 mps 759 mmHg 80%
    04:00 +28°C° 0.6 mm 6 mps 760 mmHg 80%
    05:00 +27°C° 0.6 mm 6 mps 760 mmHg 81%
    06:00 +27°C° 0.6 mm 5 mps 760 mmHg 81%
    07:00 +28°C° 0.3 mm 6 mps 760 mmHg 77%
    08:00 +29°C° 0.3 mm 6 mps 761 mmHg 73%
    09:00 +30°C° 0.3 mm 6 mps 761 mmHg 69%
    10:00 +32°C° 0.6 mm 7 mps 760 mmHg 69%
    11:00 +32°C° 0.6 mm 7 mps 760 mmHg 69%
    12:00 +32°C° 0.6 mm 7 mps 760 mmHg 69%
    13:00 +32°C° 0.5 mm 7 mps 759 mmHg 68%
    14:00 +32°C° 0.5 mm 7 mps 759 mmHg 66%
    15:00 +32°C° 0.5 mm 7 mps 758 mmHg 65%
    16:00 +32°C° 0 mm 7 mps 758 mmHg 67%
    17:00 +30°C° 0 mm 7 mps 758 mmHg 70%
    18:00 +29°C° 0 mm 7 mps 758 mmHg 73%
    19:00 +29°C° 0 mm 6 mps 759 mmHg 73%
    20:00 +29°C° 0 mm 6 mps 760 mmHg 74%
    21:00 +29°C° 0 mm 6 mps 760 mmHg 75%
    22:00 +29°C° 0.1 mm 6 mps 760 mmHg 75%
    23:00 +29°C° 0.1 mm 6 mps 760 mmHg 76%

    Day after tomorrow, 20 June, Wednesday

    Time Temperature Precipitation Wind Pressure Humidity
    00:00 +29°C° 0.1 mm 6 mps 760 mmHg 76%
    01:00 +28°C° 0.8 mm 6 mps 759 mmHg 79%
    02:00 +28°C° 0.8 mm 6 mps 759 mmHg 82%
    03:00 +27°C° 0.8 mm 6 mps 759 mmHg 84%
    04:00 +27°C° 1.8 mm 5 mps 759 mmHg 86%
    05:00 +27°C° 1.8 mm 5 mps 760 mmHg 87%
    06:00 +27°C° 1.8 mm 5 mps 760 mmHg 88%
    07:00 +27°C° 1.8 mm 5 mps 760 mmHg 87%
    08:00 +27°C° 1.8 mm 5 mps 761 mmHg 86%
    09:00 +28°C° 1.8 mm 5 mps 761 mmHg 85%
    10:00 +28°C° 0.6 mm 6 mps 761 mmHg 81%
    11:00 +29°C° 0.6 mm 6 mps 761 mmHg 76%
    12:00 +30°C° 0.6 mm 6 mps 760 mmHg 71%
    13:00 +30°C° 0.3 mm 6 mps 760 mmHg 72%
    14:00 +30°C° 0.3 mm 6 mps 759 mmHg 73%
    15:00 +29°C° 0.3 mm 6 mps 758 mmHg 75%
    16:00 +29°C° 0.2 mm 6 mps 759 mmHg 77%
    17:00 +28°C° 0.2 mm 6 mps 759 mmHg 79%
    18:00 +28°C° 0.2 mm 6 mps 759 mmHg 81%
    19:00 +28°C° 0.1 mm 5 mps 760 mmHg 82%
    20:00 +28°C° 0.1 mm 5 mps 761 mmHg 83%
    21:00 +27°C° 0.1 mm 4 mps 761 mmHg 84%
    22:00 +27°C° 1.3 mm 4 mps 761 mmHg 86%
    23:00 +27°C° 1.3 mm 5 mps 761 mmHg 87%

    21 June, Thursday

    Time Temperature Precipitation Wind Pressure Humidity
    00:00 +27°C° 1.3 mm 5 mps 760 mmHg 89%
    01:00 +27°C° 0.2 mm 5 mps 760 mmHg 89%
    02:00 +27°C° 0.2 mm 5 mps 759 mmHg 89%
    03:00 +27°C° 0.2 mm 5 mps 759 mmHg 90%
    04:00 +26°C° 0.5 mm 5 mps 759 mmHg 90%
    05:00 +26°C° 0.5 mm 5 mps 760 mmHg 90%
    06:00 +26°C° 0.5 mm 4 mps 760 mmHg 90%
    07:00 +27°C° 0.7 mm 4 mps 760 mmHg 89%
    08:00 +27°C° 0.7 mm 4 mps 761 mmHg 87%
    09:00 +28°C° 0.7 mm 4 mps 762 mmHg 85%
    10:00 +28°C° 0.5 mm 4 mps 761 mmHg 81%
    11:00 +29°C° 0.5 mm 5 mps 761 mmHg 77%
    12:00 +30°C° 0.5 mm 5 mps 760 mmHg 72%
    13:00 +30°C° 0.4 mm 5 mps 760 mmHg 72%
    14:00 +30°C° 0.4 mm 5 mps 759 mmHg 71%
    15:00 +30°C° 0.4 mm 6 mps 758 mmHg 71%
    16:00 +29°C° 0.3 mm 6 mps 759 mmHg 75%
    17:00 +28°C° 0.3 mm 5 mps 759 mmHg 79%
    18:00 +28°C° 0.3 mm 5 mps 760 mmHg 83%
    19:00 +27°C° 0.5 mm 5 mps 760 mmHg 84%
    20:00 +27°C° 0.5 mm 5 mps 761 mmHg 86%
    21:00 +27°C° 0.5 mm 5 mps 761 mmHg 87%
    22:00 +27°C° 0.3 mm 4 mps 761 mmHg 88%
    23:00 +27°C° 0.3 mm 4 mps 761 mmHg 88%

    22 June, Friday

    Time Temperature Precipitation Wind Pressure Humidity
    00:00 +27°C° 0.3 mm 4 mps 761 mmHg 89%
    01:00 +27°C° 0.5 mm 4 mps 760 mmHg 89%
    02:00 +26°C° 0.5 mm 4 mps 760 mmHg 90%
    03:00 +26°C° 0.5 mm 4 mps 759 mmHg 90%
    04:00 +26°C° 0.6 mm 3 mps 760 mmHg 91%
    05:00 +26°C° 0.6 mm 3 mps 760 mmHg 91%
    06:00 +26°C° 0.6 mm 3 mps 760 mmHg 91%
    07:00 +27°C° 1.7 mm 3 mps 760 mmHg 86%
    08:00 +28°C° 1.7 mm 3 mps 761 mmHg 81%
    09:00 +29°C° 1.7 mm 4 mps 761 mmHg 76%
    10:00 +30°C° 2 mm 4 mps 761 mmHg 76%
    11:00 +30°C° 2 mm 4 mps 760 mmHg 77%
    12:00 +30°C° 2 mm 5 mps 760 mmHg 77%
    13:00 +30°C° 0.6 mm 5 mps 759 mmHg 77%
    14:00 +30°C° 0.6 mm 5 mps 759 mmHg 76%
    15:00 +30°C° 0.6 mm 5 mps 758 mmHg 75%
    16:00 +29°C° 0.1 mm 5 mps 759 mmHg 78%
    17:00 +28°C° 0.1 mm 4 mps 759 mmHg 80%
    18:00 +28°C° 0.1 mm 4 mps 759 mmHg 82%
    19:00 +28°C° 0.3 mm 4 mps 760 mmHg 84%
    20:00 +27°C° 0.3 mm 3 mps 760 mmHg 85%
    21:00 +27°C° 0.3 mm 3 mps 761 mmHg 87%
    22:00 +27°C° 0.3 mm 3 mps 761 mmHg 87%
    23:00 +27°C° 0.3 mm 3 mps 760 mmHg 88%

    23 June, Saturday

    Time Temperature Precipitation Wind Pressure Humidity
    00:00 +27°C° 0.3 mm 3 mps 760 mmHg 88%
    01:00 +27°C° 0.6 mm 3 mps 760 mmHg 89%
    02:00 +27°C° 0.6 mm 3 mps 760 mmHg 89%
    03:00 +27°C° 0.6 mm 3 mps 759 mmHg 90%
    04:00 +26°C° 0.6 mm 3 mps 760 mmHg 90%
    05:00 +26°C° 0.6 mm 3 mps 760 mmHg 90%
    06:00 +26°C° 0.6 mm 2 mps 760 mmHg 91%
    07:00 +27°C° 1 mm 3 mps 760 mmHg 87%
    08:00 +28°C° 1 mm 3 mps 761 mmHg 83%
    09:00 +29°C° 1 mm 3 mps 761 mmHg 78%
    10:00 +30°C° 0.8 mm 3 mps 761 mmHg 77%
    11:00 +30°C° 0.8 mm 4 mps 760 mmHg 75%
    12:00 +32°C° 0.8 mm 4 mps 760 mmHg 73%
    13:00 +30°C° 0.6 mm 4 mps 759 mmHg 74%
    14:00 +30°C° 0.6 mm 4 mps 759 mmHg 76%
    15:00 +30°C° 0.6 mm 4 mps 758 mmHg 77%
    16:00 +29°C° 0.1 mm 4 mps 758 mmHg 79%
    17:00 +29°C° 0.1 mm 4 mps 759 mmHg 81%
    18:00 +28°C° 0.1 mm 4 mps 759 mmHg 84%
    19:00 +28°C° 0.1 mm 3 mps 759 mmHg 85%
    20:00 +28°C° 0.1 mm 3 mps 760 mmHg 86%
    21:00 +27°C° 0.1 mm 3 mps 760 mmHg 87%
    22:00 +27°C° 0.1 mm 4 mps 760 mmHg 88%
    23:00 +27°C° 0.1 mm 4 mps 760 mmHg 88%
    Show more